Spokane, WA

8:07 AM PDT on June 23, 2017 (GMT -0700)
Spokane International

Weather History for KGEG - June, 2013

Change the Weather History Date:

Saturday, June 22, 2013

  Actual Average Record
Temperature  
Mean Temperature 58 °F 63 °F  
Max Temperature 68 °F 75 °F 100 °F (1973)
Min Temperature 47 °F 52 °F 37 °F (1991)
Degree Days  
Heating Degree Days 7 4  
Month to date heating degree days 121 113  
Since 1 June heating degree days 121 113  
Since 1 July heating degree days 6221 6570  
Cooling Degree Days 0 2  
Month to date cooling degree days 23 28  
Year to date cooling degree days 53 42  
Since 1 June cooling degree days 23 28  
Growing Degree Days 7 (Base 50)    
Moisture  
Dew Point 46 °F    
Average Humidity 68    
Maximum Humidity 93    
Minimum Humidity 42    
Precipitation  
Precipitation 0.00 in 0.03 in 1.65 in (1905)
Month to date precipitation 1.48 1.01  
Year to date precipitation 6.41 8.64  
Snow  
Snow 0.00 in 0.00 in T in (1993)
Month to date snowfall 0.0 0.0  
Since 1 June snowfall 0.0 0.0  
Since 1 July snowfall 43.5 44.9  
Snow Depth 0.00 in    
Sea Level Pressure  
Sea Level Pressure 30.04 in    
Wind  
Wind Speed 3 mph (SSE)    
Max Wind Speed 8 mph    
Max Gust Speed 10 mph    
Visibility 10 miles    
Events Fog    
T = Trace of Precipitation, MM = Missing Value Source: NWS Daily Summary

Daily Weather History Graph

Daily Weather History Graph

Search for Another Location

Airport or City:

Trip Planner

Search our weather history database for the weather conditions in past years. The results will help you decide how hot, cold, wet, or windy it might be!

Date:

Astronomy

Jun. 22, 2013 Rise Set
Actual Time 4:52 AM PDT 8:51 PM PDT
Civil Twilight 4:11 AM PDT 9:32 PM PDT
Nautical Twilight 3:15 AM PDT 10:29 PM PDT
Astronomical Twilight 1:43 AM PDT 12:00 AM PDT
Moon 8:06 PM PDT (6/22) 4:14 AM PDT (6/22)
Length of Visible Light 17h 20m
Length of Day
15h 59m
Waxing Gibbous, 99% of the Moon is Illuminated
Jun 22
Waxing Gibbous
Jun 23
Full
Jun 29
Last Quarter
Jul 8
New
Jul 15
First Quarter

Hourly Weather History & Observations

Time (PDT) Temp. Dew Point Humidity Pressure Visibility Wind Dir Wind Speed Gust Speed Precip Events Conditions
12:53 AM 50.0 °F 45.0 °F 83% 30.10 in 10.0 mi SW 5.8 mph - N/A   Partly Cloudy
1:53 AM 50.0 °F 45.0 °F 83% 30.08 in 10.0 mi SW 5.8 mph - N/A   Partly Cloudy
2:53 AM 48.9 °F 44.1 °F 83% 30.09 in 10.0 mi Calm Calm - N/A   Mostly Cloudy
3:53 AM 48.9 °F 45.0 °F 86% 30.09 in 10.0 mi South 4.6 mph - N/A   Mostly Cloudy
4:53 AM 46.9 °F 44.1 °F 90% 30.09 in 10.0 mi SSE 5.8 mph - N/A   Mostly Cloudy
5:53 AM 48.0 °F 45.0 °F 89% 30.09 in 10.0 mi SE 3.5 mph - N/A Fog Mostly Cloudy
6:53 AM 48.9 °F 45.0 °F 86% 30.09 in 10.0 mi South 5.8 mph - N/A Fog Mostly Cloudy
7:53 AM 52.0 °F 46.9 °F 83% 30.09 in 10.0 mi SE 3.5 mph - N/A Fog Mostly Cloudy
8:53 AM 55.9 °F 48.0 °F 75% 30.08 in 10.0 mi Calm Calm - N/A   Mostly Cloudy
9:53 AM 60.1 °F 46.9 °F 62% 30.08 in 10.0 mi Calm Calm - N/A   Mostly Cloudy
10:53 AM 60.1 °F 46.9 °F 62% 30.08 in 10.0 mi WSW 5.8 mph - N/A   Mostly Cloudy
11:53 AM 61.0 °F 46.9 °F 60% 30.08 in 10.0 mi SSW 6.9 mph - N/A   Mostly Cloudy
12:53 PM 62.1 °F 46.0 °F 56% 30.06 in 10.0 mi Calm Calm - N/A   Overcast
1:53 PM 63.0 °F 46.9 °F 56% 30.05 in 10.0 mi Calm Calm - N/A   Mostly Cloudy
2:53 PM 64.0 °F 46.0 °F 52% 30.04 in 10.0 mi Calm Calm - N/A   Mostly Cloudy
3:53 PM 66.0 °F 46.0 °F 48% 30.03 in 10.0 mi Calm Calm - N/A   Overcast
4:53 PM 66.0 °F 45.0 °F 47% 30.01 in 10.0 mi Variable 3.5 mph - N/A   Mostly Cloudy
5:53 PM 66.9 °F 44.1 °F 44% 29.98 in 10.0 mi ESE 3.5 mph - N/A   Scattered Clouds
6:53 PM 66.9 °F 43.0 °F 42% 29.97 in 10.0 mi Variable 4.6 mph - N/A   Scattered Clouds
7:53 PM 66.0 °F 44.1 °F 45% 29.96 in 10.0 mi SE 5.8 mph - N/A   Scattered Clouds
8:53 PM 64.0 °F 45.0 °F 50% 29.96 in 10.0 mi Calm Calm - N/A   Scattered Clouds
9:53 PM 61.0 °F 46.0 °F 58% 29.96 in 10.0 mi Calm Calm - N/A   Partly Cloudy
10:53 PM 59.0 °F 46.0 °F 62% 29.95 in 10.0 mi SSE 3.5 mph - N/A   Partly Cloudy
11:53 PM 57.9 °F 46.0 °F 65% 29.94 in 10.0 mi ENE 5.8 mph - N/A   Partly Cloudy